Regional Weather Roundup
Issued by NWS

Home | Current Version | Previous Version | Graphics & Text | Print | Product List | Glossary On
Versions: 1 2 3 4 5 6 7 8 9 10 11 12 13 14 15 16 17 18 19 20 21 22 23 24 25 26 27
000
ASUS45 KTFX 300310
RWRMT
MONTANA REGIONAL WEATHER ROUNDUP
NATIONAL WEATHER SERVICE GREAT FALLS MT
900 PM MDT FRI APR 29 2016

NOTE: "FAIR" INDICATES FEW OR NO CLOUDS BELOW 12000 FEET WITH NO
SIGNIFICANT WEATHER AND/OR OBSTRUCTIONS TO VISIBILITY.

MTZ001>007-043-300400-
WEST OF THE DIVIDE

CITY           SKY/WX    TMP DP  RH WIND       PRES   REMARKS
KALISPELL      CLOUDY    47  36  65 NW3       29.97R
MISSOULA       CLOUDY    47  35  63 N9        29.98R
BUTTE          LGT RAIN  40  36  86 NW5       29.93R
MULLAN PASS    LGT SNOW  32  31  96 NW3       29.98R FOG
ANACONDA         N/A     39  36  87 N9        29.95R
DEER LODGE       N/A     43  36  75 NW5       29.96R
EUREKA           N/A     48  36  61 E3        30.00R
HAMILTON         N/A     46  34  61 NW6       29.96R
LIBBY            N/A     46  39  76 SE6       30.00R
PLAINS           N/A     50  38  63 CALM      29.99R
$$

MTZ008-052>055-300400-
SOUTHWEST MONTANA

CITY           SKY/WX    TMP DP  RH WIND       PRES   REMARKS
BOZEMAN        CLOUDY    45  32  60 CALM      29.93R
DILLON         LGT RAIN  41  37  86 NW7       29.89S
ENNIS          CLOUDY    45  32  61 N9        29.93R
THREE FORKS      N/A     47  19  33 E9        29.93R
TWIN BRIDGES     N/A     48  31  52 N10       29.89R
$$

MTZ009-010-012-014-046-048-049-054-300400-
EAST SLOPES AND CENTRAL MONTANA

CITY           SKY/WX    TMP DP  RH WIND       PRES   REMARKS
CUT BANK       CLOUDY    44  36  73 E9        30.01R
GREAT FALLS    MOCLDY    45  34  65 E6        29.97R
HELENA         CLOUDY    49  33  54 N6        29.92R
CHOTEAU          N/A     41  36  81 E9        30.00R
CONRAD           N/A     46  42  86 NE6       30.02R
$$

MTZ011-013-016-021-045-047-050-051-300400-
NORTH CENTRAL MONTANA

CITY           SKY/WX    TMP DP  RH WIND       PRES   REMARKS
HAVRE          CLOUDY    48  39  71 E6        30.05R
LEWISTOWN      CLOUDY    44  33  65 E12       30.01R
N BAR RANCH    CLOUDY    41  34  75 CALM      30.05R
CHINOOK          N/A     48  39  71 E3        30.06R
$$

MTZ017>020-022>027-061-062-300400-
NORTHEAST MONTANA

CITY           SKY/WX    TMP DP  RH WIND       PRES   REMARKS
GLASGOW        PTCLDY    47  36  65 E8        30.08R
JORDAN           N/A     48  39  71 SE7       30.07R
SIDNEY         CLEAR     48  32  53 NE6       30.11R
WOLF POINT     CLOUDY    49  34  56 E5        30.10R
PLENTYWOOD       N/A     50  27  40 E6        30.13R
POPLAR           N/A     48  34  57 E6        30.11R
SCOBEY           N/A     42  21  43 SE6       30.10S
$$

MTZ028>42-056>058-300400-
SOUTHCENTRAL AND SOUTHEAST MONTANA

CITY           SKY/WX    TMP DP  RH WIND       PRES   REMARKS
BAKER          CLOUDY    46  37  71 CALM      30.08R
BILLINGS       CLOUDY    46  34  62 E12       30.00R
LIVINGSTON     CLOUDY    43  31  62 E16       29.96R
MILES CITY     CLOUDY    49  33  54 E10       30.06R
EKALAKA          N/A     43  32  65 E2        30.04R
FORSYTH          N/A     46  37  71 E6        30.05R
LAUREL           N/A     45  29  53 NE3       29.99R
ROUNDUP          N/A     45  33  62 NE5       29.94R
$$

REGIONAL REPORTS...DAKOTAS

CITY           SKY/WX    TMP DP  RH WIND       PRES   REMARKS
WILLISTON      CLEAR     50  27  40 E8        30.13R
MINOT          CLEAR     50  26  39 E7        30.15R
DICKINSON      MOCLDY    44  30  57 E7        30.08R
BEACH          CLOUDY    41  34  75 E8        30.12R
CROSBY           N/A     43  23  45 SE7       30.17S
WATFORD CITY     N/A     43  28  56 SE5       30.13R
BISMARCK       CLEAR     48  35  60 NE9       30.12R
GRAND FORKS    PTCLDY    52  31  44 NE12      30.17R
FARGO          CLEAR     55  33  43 NE14      30.12R
BUFFALO SD       N/A     42  34  73 SE9       30.01R
RAPID CITY     CLOUDY    41  36  82 NE7       30.05R
$$

REGIONAL REPORTS...WYOMING/IDAHO/WASHINGTON

CITY           SKY/WX    TMP DP  RH WIND       PRES   REMARKS
GILLETTE       CLOUDY    39  37  92 E7        30.01S
SHERIDAN       CLOUDY    43  36  76 E9        30.02R
BUFFALO WY       N/A    N/A N/A N/A MISG      30.02R
CODY           CLOUDY    39  34  81 SW7       29.97R
YELLOWSTONE LA   N/A     32  26  78 CALM      29.94R
IDAHO FALLS    PTCLDY    45  36  70 SW5       29.87R
SALMON         CLOUDY    45  34  65 SW5       29.91R
BOISE          PTCLDY    53  38  56 N16       29.89R
SPOKANE        LGT RAIN  51  42  71 W5        30.00R
$$

REGIONAL REPORTS...ALBERTA

CITY           SKY/WX    TMP DP  RH WIND       PRES   REMARKS
EDMONTON       MOCLDY    55  32  41 S14       30.02R
CALGARY        MOCLDY    46  30  53 SE13      30.02R
LETHBRIDGE     CLOUDY    46  36  66 W2        30.02R
MEDICINE HAT   CLOUDY    50  39  66 S6        30.06R
WATERTON GATE    N/A     41  34  75 CALM        N/A
CARDSTON         N/A     45  32  61 E2          N/A
MILK RIVER       N/A     45  36  70 E7          N/A
$$

REGIONAL REPORTS...SASKATCHEWAN

CITY           SKY/WX    TMP DP  RH WIND       PRES   REMARKS
SWIFT CURRENT  CLOUDY    50  25  37 SE9       30.09R
REGINA         PTCLDY    50  16  25 E12       30.17R
SASKATOON      CLEAR     54  21  28 SE13      30.17R
CYPRESS HILLS    N/A     41  32  70 SE7         N/A
VAL MARIE        N/A     48  34  57 SE7         N/A
ROCKGLEN         N/A     46  28  49 SE7         N/A
$$




USA.gov is the U.S. government's official web portal to all federal, state and local government web resources and services.